Salina, KS

3:25 PM CDT on May 26, 2017 (GMT -0500)
Salina Municipal

Weather History for KSLN - May, 2014

Change the Weather History Date:

Saturday, May 10, 2014

  Actual Average Record
Temperature  
Mean Temperature 74 °F 63 °F  
Max Temperature 90 °F 75 °F 96 °F (1967)
Min Temperature 58 °F 52 °F 36 °F (1989)
Degree Days  
Heating Degree Days 0 4  
Month to date heating degree days 27 50  
Since 1 July heating degree days 5325 4818  
Cooling Degree Days 9 2  
Month to date cooling degree days 51 17  
Year to date cooling degree days 87 42  
Growing Degree Days 24 (Base 50)    
Moisture  
Dew Point 50 °F    
Average Humidity 47    
Maximum Humidity 72    
Minimum Humidity 22    
Precipitation  
Precipitation T in 0.15 in 2.14 in (1974)
Month to date precipitation T 1.32  
Year to date precipitation 3.44 8.56  
Sea Level Pressure  
Sea Level Pressure 29.71 in    
Wind  
Wind Speed 10 mph (SSE)    
Max Wind Speed 22 mph    
Max Gust Speed 27 mph    
Visibility 10 miles    
Events      
T = Trace of Precipitation, MM = Missing Value Source: NWS Daily Summary

Daily Weather History Graph

Daily Weather History Graph

Search for Another Location

Airport or City:

Trip Planner

Search our weather history database for the weather conditions in past years. The results will help you decide how hot, cold, wet, or windy it might be!

Date:

Astronomy

May. 10, 2014 Rise Set
Actual Time 6:23 AM CDT 8:31 PM CDT
Civil Twilight 5:53 AM CDT 9:01 PM CDT
Nautical Twilight 5:17 AM CDT 9:37 PM CDT
Astronomical Twilight 4:38 AM CDT 10:16 PM CDT
Moon 4:31 PM CDT (5/10) 3:54 AM CDT (5/10)
Length of Visible Light 15h 07m
Length of Day
14h 08m
Waxing Gibbous, 82% of the Moon is Illuminated
May 10
Waxing Gibbous
May 14
Full
May 21
Last Quarter
May 28
New
Jun 5
First Quarter

Hourly Weather History & Observations

Time (CDT) Temp. Heat Index Dew Point Humidity Pressure Visibility Wind Dir Wind Speed Gust Speed Precip Events Conditions
12:53 AM 64.0 °F - 44.1 °F 48% 29.79 in 10.0 mi South 11.5 mph - N/A   Clear
1:53 AM 64.0 °F - 44.1 °F 48% 29.78 in 10.0 mi South 10.4 mph - N/A   Clear
2:53 AM 62.1 °F - 45.0 °F 53% 29.77 in 10.0 mi South 10.4 mph - N/A   Clear
3:53 AM 62.1 °F - 46.9 °F 58% 29.77 in 10.0 mi South 10.4 mph - N/A   Clear
4:53 AM 63.0 °F - 46.0 °F 54% 29.76 in 10.0 mi South 15.0 mph 19.6 mph N/A   Clear
5:53 AM 62.6 °F - 51.8 °F 68% 29.77 in 10.0 mi SSE 13.8 mph - N/A   Clear
6:53 AM 61.0 °F - 52.0 °F 72% 29.78 in 10.0 mi South 9.2 mph - N/A   Clear
7:53 AM 66.0 °F - 54.0 °F 65% 29.76 in 10.0 mi SSE 10.4 mph - N/A   Clear
8:53 AM 71.1 °F - 55.9 °F 59% 29.76 in 10.0 mi South 11.5 mph - N/A   Clear
9:53 AM 75.0 °F - 55.0 °F 50% 29.74 in 10.0 mi South 10.4 mph - N/A   Clear
10:53 AM 79.0 °F - 55.0 °F 44% 29.74 in 10.0 mi SSW 17.3 mph 21.9 mph N/A   Clear
11:53 AM 82.0 °F 81.3 °F 54.0 °F 38% 29.73 in 10.0 mi SW 12.7 mph 17.3 mph N/A   Clear
12:53 PM 84.0 °F - 52.0 °F 33% 29.72 in 10.0 mi WSW 8.1 mph - N/A   Clear
1:53 PM 86.0 °F - 48.9 °F 28% 29.69 in 10.0 mi WSW 8.1 mph - N/A   Clear
2:53 PM 87.1 °F - 48.9 °F 27% 29.69 in 10.0 mi Variable 4.6 mph - N/A   Clear
3:53 PM 88.0 °F - 46.9 °F 24% 29.66 in 10.0 mi SW 3.5 mph - N/A   Clear
4:53 PM 88.0 °F - 45.0 °F 22% 29.64 in 10.0 mi Calm Calm - N/A   Clear
5:53 PM 84.9 °F - 46.9 °F 27% 29.64 in 10.0 mi ESE 5.8 mph - N/A   Clear
6:53 PM 84.0 °F - 48.0 °F 28% 29.64 in 10.0 mi ESE 5.8 mph - N/A   Clear
7:53 PM 82.0 °F - 50.0 °F 33% 29.64 in 10.0 mi ENE 4.6 mph - N/A   Clear
8:53 PM 79.0 °F - 48.9 °F 35% 29.64 in 10.0 mi East 9.2 mph - N/A   Clear
9:53 PM 73.9 °F - 55.0 °F 52% 29.67 in 10.0 mi SE 13.8 mph - N/A   Clear
10:53 PM 72.0 °F - 55.0 °F 55% 29.68 in 10.0 mi ESE 11.5 mph - N/A   Clear
11:53 PM 71.1 °F - 59.0 °F 66% 29.68 in 10.0 mi SE 13.8 mph - N/A   Clear